Tiempo cada hora Cegelnya

Hoy, 17 Abril, Sábado

Tiempo Temperatura Precipitaciones Viento Presión Humedad
00:00 +5°C° 0 mm 3 mps 749 mmHg 93%
01:00 +6°C° 0 mm 2 mps 749 mmHg 94%
02:00 +5°C° 0 mm 2 mps 749 mmHg 95%
03:00 +5°C° 0 mm 2 mps 749 mmHg 95%
04:00 +4°C° 0 mm 2 mps 749 mmHg 94%
05:00 +3°C° 0 mm 2 mps 750 mmHg 94%
06:00 +5°C° 0 mm 2 mps 750 mmHg 89%
07:00 +6°C° 0 mm 2 mps 750 mmHg 83%
08:00 +7°C° 0 mm 3 mps 751 mmHg 78%
09:00 +8°C° 0 mm 3 mps 751 mmHg 72%
10:00 +9°C° 0 mm 3 mps 751 mmHg 66%
11:00 +10°C° 0 mm 3 mps 751 mmHg 60%
12:00 +10°C° 0 mm 3 mps 751 mmHg 58%
13:00 +12°C° 0 mm 2 mps 751 mmHg 55%
14:00 +12°C° 0 mm 2 mps 751 mmHg 53%
15:00 +12°C° 0 mm 2 mps 751 mmHg 54%
16:00 +12°C° 0 mm 1 mps 751 mmHg 54%
17:00 +12°C° 0 mm 1 mps 751 mmHg 55%
18:00 +11°C° 0.1 mm 1 mps 751 mmHg 62%
19:00 +9°C° 0.1 mm 2 mps 750 mmHg 70%
20:00 +8°C° 0.1 mm 2 mps 750 mmHg 77%
21:00 +7°C° 0.7 mm 3 mps 750 mmHg 81%
22:00 +7°C° 0.7 mm 3 mps 750 mmHg 85%
23:00 +6°C° 0.7 mm 4 mps 749 mmHg 89%

Mañana, 18 Abril, Domingo

Tiempo Temperatura Precipitaciones Viento Presión Humedad
00:00 +5°C° 0.3 mm 4 mps 749 mmHg 89%
01:00 +5°C° 0.3 mm 4 mps 749 mmHg 90%
02:00 +5°C° 0.3 mm 4 mps 748 mmHg 90%
03:00 +5°C° 0 mm 4 mps 748 mmHg 91%
04:00 +7°C° 0 mm 3 mps 748 mmHg 92%
05:00 +7°C° 0 mm 3 mps 747 mmHg 94%
06:00 +7°C° 0.1 mm 3 mps 747 mmHg 93%
07:00 +7°C° 0.1 mm 3 mps 747 mmHg 92%
08:00 +7°C° 0.1 mm 4 mps 748 mmHg 92%
09:00 +6°C° 0 mm 4 mps 748 mmHg 89%
10:00 +6°C° 0 mm 5 mps 749 mmHg 87%
11:00 +5°C° 0 mm 6 mps 749 mmHg 85%
12:00 +6°C° 0 mm 5 mps 750 mmHg 82%
13:00 +6°C° 0 mm 5 mps 750 mmHg 80%
14:00 +6°C° 0 mm 5 mps 751 mmHg 77%
15:00 +6°C° 0 mm 4 mps 751 mmHg 75%
16:00 +8°C° 0 mm 3 mps 751 mmHg 72%
17:00 +8°C° 0 mm 3 mps 751 mmHg 70%
18:00 +7°C° 0 mm 2 mps 752 mmHg 74%
19:00 +7°C° 0 mm 2 mps 752 mmHg 78%
20:00 +6°C° 0 mm 2 mps 752 mmHg 82%
21:00 +5°C° 0 mm 2 mps 752 mmHg 85%
22:00 +5°C° 0 mm 2 mps 752 mmHg 88%
23:00 +5°C° 0 mm 2 mps 752 mmHg 91%

Pasado mañana, 19 Abril, Lunes

Tiempo Temperatura Precipitaciones Viento Presión Humedad
00:00 +4°C° 0 mm 2 mps 752 mmHg 92%
01:00 +4°C° 0 mm 2 mps 752 mmHg 93%
02:00 +3°C° 0 mm 2 mps 752 mmHg 95%
03:00 +3°C° 0 mm 2 mps 752 mmHg 95%
04:00 +3°C° 0 mm 2 mps 752 mmHg 95%
05:00 +2°C° 0 mm 2 mps 752 mmHg 95%
06:00 +3°C° 0 mm 3 mps 752 mmHg 91%
07:00 +4°C° 0 mm 3 mps 752 mmHg 87%
08:00 +5°C° 0 mm 3 mps 752 mmHg 83%
09:00 +7°C° 0 mm 3 mps 752 mmHg 80%
10:00 +7°C° 0 mm 3 mps 752 mmHg 76%
11:00 +8°C° 0 mm 3 mps 752 mmHg 72%
12:00 +8°C° 0 mm 3 mps 752 mmHg 73%
13:00 +9°C° 0 mm 3 mps 752 mmHg 73%
14:00 +9°C° 0 mm 3 mps 752 mmHg 74%
15:00 +9°C° 0 mm 3 mps 752 mmHg 75%
16:00 +8°C° 0 mm 4 mps 751 mmHg 75%
17:00 +8°C° 0 mm 4 mps 751 mmHg 76%
18:00 +7°C° 0 mm 4 mps 751 mmHg 79%
19:00 +7°C° 0 mm 4 mps 751 mmHg 82%
20:00 +6°C° 0 mm 4 mps 751 mmHg 86%
21:00 +6°C° 0 mm 4 mps 751 mmHg 87%
22:00 +5°C° 0 mm 4 mps 751 mmHg 88%
23:00 +5°C° 0 mm 4 mps 751 mmHg 90%

20 Abril, Martes

Tiempo Temperatura Precipitaciones Viento Presión Humedad
00:00 +5°C° 0 mm 4 mps 750 mmHg 91%
01:00 +4°C° 0 mm 4 mps 750 mmHg 92%
02:00 +4°C° 0 mm 4 mps 750 mmHg 92%
03:00 +4°C° 0 mm 4 mps 749 mmHg 93%
04:00 +3°C° 0 mm 3 mps 749 mmHg 94%
05:00 +3°C° 0 mm 3 mps 749 mmHg 95%
06:00 +3°C° 0 mm 3 mps 748 mmHg 95%
07:00 +3°C° 0 mm 3 mps 748 mmHg 94%
08:00 +3°C° 0 mm 4 mps 748 mmHg 93%
09:00 +4°C° 0 mm 4 mps 748 mmHg 90%
10:00 +5°C° 0 mm 4 mps 747 mmHg 87%
11:00 +5°C° 0 mm 4 mps 747 mmHg 84%
12:00 +7°C° 0 mm 4 mps 746 mmHg 77%
13:00 +8°C° 0 mm 4 mps 745 mmHg 70%
14:00 +9°C° 0 mm 5 mps 745 mmHg 64%
15:00 +8°C° 0 mm 5 mps 744 mmHg 69%
16:00 +7°C° 0 mm 5 mps 744 mmHg 74%
17:00 +6°C° 0 mm 5 mps 743 mmHg 79%
18:00 +6°C° 0 mm 5 mps 743 mmHg 82%
19:00 +5°C° 0 mm 6 mps 743 mmHg 85%
20:00 +4°C° 0 mm 6 mps 742 mmHg 89%
21:00 +4°C° 0 mm 6 mps 741 mmHg 90%
22:00 +4°C° 0 mm 6 mps 741 mmHg 92%
23:00 +4°C° 0 mm 6 mps 740 mmHg 93%

21 Abril, Miércoles

Tiempo Temperatura Precipitaciones Viento Presión Humedad
00:00 +3°C° 0.1 mm 6 mps 740 mmHg 93%
01:00 +3°C° 0.1 mm 6 mps 740 mmHg 93%
02:00 +3°C° 0.1 mm 6 mps 739 mmHg 93%
03:00 +3°C° 0 mm 6 mps 739 mmHg 93%
04:00 +3°C° 0 mm 6 mps 740 mmHg 93%
05:00 +2°C° 0 mm 6 mps 740 mmHg 94%
06:00 +3°C° 0 mm 6 mps 740 mmHg 93%
07:00 +3°C° 0 mm 6 mps 741 mmHg 92%
08:00 +3°C° 0 mm 6 mps 741 mmHg 92%
09:00 +3°C° 0 mm 6 mps 742 mmHg 86%
10:00 +4°C° 0 mm 6 mps 743 mmHg 80%
11:00 +5°C° 0 mm 6 mps 743 mmHg 74%
12:00 +7°C° 0 mm 6 mps 744 mmHg 69%
13:00 +7°C° 0 mm 6 mps 744 mmHg 65%
14:00 +8°C° 0 mm 6 mps 745 mmHg 61%
15:00 +8°C° 0 mm 5 mps 745 mmHg 61%
16:00 +8°C° 0 mm 5 mps 746 mmHg 61%
17:00 +7°C° 0 mm 4 mps 746 mmHg 62%
18:00 +7°C° 0 mm 4 mps 747 mmHg 65%
19:00 +7°C° 0 mm 3 mps 747 mmHg 67%
20:00 +7°C° 0 mm 3 mps 748 mmHg 70%
21:00 +5°C° 0 mm 3 mps 748 mmHg 72%
22:00 +5°C° 0 mm 3 mps 748 mmHg 74%
23:00 +4°C° 0 mm 3 mps 749 mmHg 75%

22 Abril, Jueves

Tiempo Temperatura Precipitaciones Viento Presión Humedad
00:00 +4°C° 0 mm 3 mps 749 mmHg 78%
01:00 +4°C° 0 mm 3 mps 749 mmHg 81%
02:00 +4°C° 0 mm 3 mps 749 mmHg 84%
03:00 +4°C° 0.1 mm 3 mps 750 mmHg 87%
04:00 +4°C° 0.1 mm 3 mps 750 mmHg 90%
05:00 +4°C° 0.1 mm 2 mps 750 mmHg 94%
06:00 +5°C° 0 mm 3 mps 750 mmHg 88%
07:00 +8°C° 0 mm 3 mps 751 mmHg 82%
08:00 +9°C° 0 mm 3 mps 751 mmHg 76%
09:00 +11°C° 0 mm 3 mps 751 mmHg 68%
10:00 +12°C° 0 mm 3 mps 752 mmHg 60%
11:00 +14°C° 0 mm 3 mps 752 mmHg 52%
12:00 +16°C° 0 mm 3 mps 752 mmHg 49%
13:00 +16°C° 0 mm 3 mps 752 mmHg 46%
14:00 +17°C° 0 mm 3 mps 752 mmHg 42%
15:00 +16°C° 0.2 mm 3 mps 752 mmHg 49%
16:00 +16°C° 0.2 mm 3 mps 752 mmHg 55%
17:00 +14°C° 0.2 mm 3 mps 753 mmHg 62%
18:00 +14°C° 0.7 mm 2 mps 753 mmHg 69%
19:00 +12°C° 0.7 mm 2 mps 753 mmHg 76%
20:00 +10°C° 0.7 mm 2 mps 754 mmHg 83%
21:00 +9°C° 0.3 mm 2 mps 754 mmHg 86%
22:00 +9°C° 0.3 mm 2 mps 754 mmHg 88%
23:00 +8°C° 0.3 mm 2 mps 754 mmHg 90%
Mostrar más

Necesitamos Su Consentimiento

Meteoprog y nuestros Proveedores de Servicios pueden almacenar y acceder a sus datos personales como cookies, identificadores de dispositivo u otras tecnologías similares de su dispositivo y procesar dichos datos para personalizar contenido y anuncios, además de ofrecer funciones de redes sociales y analizar el tráfico.

  • Almacenar y/o acceder a información en su dispositivo

    Se puede almacenar o acceder a cookies, identificadores de dispositivo u otra información de su dispositivo para los fines anteriormente indicados.

  • Anuncios y contenido personalizados, medición de anuncios y contenido, percepciones del público, y desarrollo de productos

    Los anuncios y el contenido pueden personalizarse en base a su perfil. Se pueden añadir más datos para personalizar mejor los anuncios y contenidos. Se puede medir el rendimiento de los anuncios y contenidos. Se puede obtener la percepción sobre el público que ha visto los anuncios y contenidos. Dichos datos pueden usarse para desarrollar o mejorar la experiencia del usuario, sistemas y software.

Al hacer clic en ‘Estoy De Acuerdo’ usted permitirá el uso de las cookies, identificadores de dispositivo, balizas web u otras tecnologías similares indicadas. Su configuración puede cambiarse desde el navegador de su dispositivo.

Para ciertos fines, los intereses legítimos pueden ser considerados por encima del consentimiento. Puede leer más sobre ello en nuestra Política de Privacidad y Cookies.